Back to catalog

ARIANE 2 DEB

AliveHEO
NORAD 26728·DEBRIS·🇫🇷 France

Launched Jan 27, 1989 from Guiana Space Centre

Loading…

Next Passes (next 24 hours)

TLE

FreshSource: Space-Track

Epoch: Sep 13, 2026, 21:53 UTC

1 26728U 89006F   26256.91205882 -.00000035  00000-0  29485-3 0  9994
2 26728   7.6002 164.3432 7018975 254.8236  23.5710  2.49779279222406

Track ARIANE 2 DEB in real time with AllMySat

Download on the App Store